Miscellaneous Local Product
Issued by NWS Hastings, NE

Home | Current Version | Previous Version | Text Only | Print | Product List | Glossary Off
Versions: 1 2 3 4 5 6 7 8 9 10 11 12 13 14 15 16 17 18 19 20 21 22 23 24 25 26 27 28 29 30 31 32 33 34 35 36 37 38 39 40 41 42 43 44 45 46 47 48 49 50

429
AXUS43 KGID 160602
MISGRI

GID CWA HOURLY WEATHER ROUNDUP
NATIONAL WEATHER SERVICE HASTINGS NE
100 AM CDT MON OCT 16 2017

NOTE: "FAIR" INDICATES FEW OR NO CLOUDS BELOW 12,000 FEET WITH NO
SIGNIFICANT WEATHER AND/OR OBSTRUCTIONS TO VISIBILITY.

...SOUTH CENTRAL NEBRASKA...

CITY           SKY/WX    TMP DP  RH WIND       PRES   REMARKS
GRAND ISLAND   CLEAR     42  39  89 S3        30.37S
HASTINGS       CLEAR     39  34  82 CALM      30.37S
KEARNEY        CLEAR     40  33  76 NW5       30.37S
ORD            CLEAR     34  30  85 CALM      30.33F
YORK           CLEAR     39  36  87 CALM      30.36F
AURORA         CLEAR     38  34  86 W5        30.36S WCI  34
LEXINGTON      CLEAR     37  33  83 N3        30.37S
HOLDREGE       CLEAR     39  31  71 CALM      30.36F
HEBRON         CLEAR     38  36  92 CALM      30.37S

...NEBRASKA PANHANDLE...

CITY           SKY/WX    TMP DP  RH WIND       PRES   REMARKS
CHADRON        CLEAR     30  25  81 CALM      30.28F
ALLIANCE       CLEAR     33  25  72 S5        30.31F WCI  29
SCOTTSBLUFF    CLEAR     35  27  72 E8        30.32F WCI  29
SIDNEY         CLOUDY    32  25  75 SW5       30.36F WCI  27

...WESTERN AND NORTH CENTRAL NEBRASKA...

CITY           SKY/WX    TMP DP  RH WIND       PRES   REMARKS
VALENTINE      CLEAR     33  29  85 SW3       30.31F
AINSWORTH      CLEAR     35  31  87 S3        30.32S
ONEILL         CLEAR     40  36  84 CALM      30.32F
BROKEN BOW     CLEAR     33  30  88 CALM      30.35F
IMPERIAL       CLEAR     36  29  75 CALM      30.37F
NORTH PLATTE   CLEAR     35  30  82 CALM      30.36S
MCCOOK         CLEAR     38  31  76 W5        30.37F WCI  34

...EASTERN NEBRASKA...

CITY           SKY/WX    TMP DP  RH WIND       PRES   REMARKS
NORFOLK        CLEAR     35  32  88 SW3       30.32F
SO SIOUX CITY  CLEAR     39  35  86 CALM      30.31S
TEKAMAH        CLEAR     39  34  82 W3        30.32S
COLUMBUS       CLEAR     37  34  89 SW3       30.35S
ALBION         CLEAR     35  32  90 CALM      30.34F
OMAHA EPPLEY   CLEAR     44  38  79 SE3       30.34S
OFFUTT AFB     CLEAR     39  35  84 CALM      30.33S
MILLARD        CLEAR     41  40  95 CALM      30.34S
LINCOLN        CLEAR     37  34  89 CALM      30.36F
NEBRASKA CITY  CLEAR     46  37  70 W8        30.34S
BEATRICE       CLEAR     39  36  89 CALM      30.37S
FALLS CITY     CLEAR     40  37  89 CALM      30.35S

...NORTHERN KANSAS...

CITY           SKY/WX    TMP DP  RH WIND       PRES   REMARKS
GOODLAND       CLEAR     47  28  47 SW10      30.38F
HILL CITY      CLEAR     37  33  85 W3        30.39F
NORTON         CLEAR     37  27  65 SW7       30.37S WCI  32
PHILLIPSBURG   CLEAR     39  34  81 W6        30.37F WCI  35
SMITH CENTER   CLEAR     39  32  75 CALM      30.38S
HAYS           CLEAR     41  35  79 CALM      30.40S
RUSSELL        CLEAR     43  36  76 S7        30.38S
CONCORDIA      CLEAR     48  35  60 SW3       30.36S
SALINA         CLEAR     44  41  89 S6        30.39S
TOPEKA         CLEAR     43  42  97 CALM      30.37F



USA.gov is the U.S. government's official web portal to all federal, state and local government web resources and services.